User: anonymous   Login
Location: Fontevrault
(47.1823°N, 0.0493°E)
Time: 19:57:16
(UTC+00:00)
Language:

Cosmos 2058 Rocket - Orbit

View from above orbital plane
View from above orbital plane
View from above satellite
View from above satellite

Ground track
Ground track

The orbit data is extracted from the following two-line orbital elements,

1 20466U 90010B   21270.48180145  .00000117  00000-0  12009-4 0  9996
2 20466  82.5061 349.6936 0019170 241.1705 118.7585 14.81439165687873
Epoch (UTC): 27 September 2021 11:33:47
Eccentricity: 0.0019170
inclination: 82.5061°
perigee height: 611 km
apogee height: 638 km
right ascension of ascending node: 349.6936°
argument of perigee: 241.1705°
revolutions per day: 14.81439165
mean anomaly at epoch: 118.7585°
orbit number at epoch: 68787

The dashed part of the orbit path shows where the satellite is in the earth's shadow,  

DLR